Date String (YYYY-MM-DD hh:mm:ss) UTC,Instrument flags,Ambient pressure (hPa),Sample flow (lpm),Bypass flow (lpm),Sample temperature (°C),Ambient temperature (°C),ASC tube jacket temperature (°C),LED temperature (°C),Box temperature (°C),Sample RH (%),Span deviation,Mass concentration (μg/m³),Mass concentration (μg/m³),Mass concentration (μg/m³)
DateTimeUTC,F1_M11,P_M11,Q1_M11,Q2_M11,T1_M11,T2_M11,T3_M11,T4_M11,T5_M11,U1_M11,ZSPAN_M11,X2_M11,X0_M11,X1_M11
2022-08-03 05:00:00,,0827.2,5.01,0.00,29.6,27.7,00.0,38.3,31.4,33.2,0000.0,0003.10,0010.05,0002.32
2022-08-03 05:01:00,,0827.3,4.99,0.00,29.5,27.2,00.0,38.3,31.3,33.2,0000.0,0003.10,0009.44,0002.31
2022-08-03 05:02:00,,0827.0,5.01,0.00,29.5,27.0,00.0,38.2,31.2,33.2,0000.0,0003.14,0009.87,0002.31
2022-08-03 05:03:00,,0827.0,5.02,0.00,29.4,27.1,00.0,38.2,31.1,32.8,0000.0,0003.15,0009.66,0002.31
2022-08-03 05:04:00,,0827.1,5.01,0.00,29.3,27.2,00.0,38.2,31.2,32.9,0000.0,0003.19,0010.58,0002.31
2022-08-03 05:05:00,,0827.3,4.99,0.00,29.3,27.4,00.0,38.2,31.2,33.0,0000.0,0003.21,0011.43,0002.31
2022-08-03 05:06:00,,0827.1,5.01,0.00,29.3,27.5,00.0,38.2,31.2,33.0,0000.0,0003.18,0010.69,0002.30
2022-08-03 05:07:00,,0827.0,4.99,0.00,29.3,27.7,00.0,38.2,31.3,33.8,0000.0,0003.17,0009.25,0002.32
2022-08-03 05:08:00,,0827.2,5.01,0.00,29.4,27.9,00.0,38.2,31.3,34.2,0000.0,0003.20,0009.34,0002.32
2022-08-03 05:09:00,,0827.0,5.00,0.00,29.4,28.0,00.0,38.2,31.4,34.3,0000.0,0003.22,0009.10,0002.33
2022-08-03 05:10:00,,0827.0,5.00,0.00,29.4,28.1,00.0,38.2,31.4,34.0,0000.0,0003.28,0008.99,0002.34
2022-08-03 05:11:00,,0827.2,5.00,0.00,29.4,28.3,00.0,38.2,31.4,34.3,0000.0,0003.31,0009.10,0002.35
2022-08-03 05:12:00,,0827.3,5.01,0.00,29.5,28.4,00.0,38.2,31.5,34.3,0000.0,0003.32,0009.19,0002.34
2022-08-03 05:13:00,,0827.0,5.00,0.00,29.5,28.5,00.0,38.3,31.5,33.9,0000.0,0003.35,0008.53,0002.36
2022-08-03 05:14:00,,0827.1,5.00,0.00,29.5,28.5,00.0,38.3,31.6,33.7,0000.0,0003.34,0008.37,0002.37
2022-08-03 05:15:00,,0827.1,5.00,0.00,29.6,28.4,00.0,38.3,31.5,33.8,0000.0,0003.35,0007.82,0002.38
2022-08-03 05:16:00,,0827.1,5.01,0.00,29.5,27.8,00.0,38.3,31.4,33.6,0000.0,0003.36,0007.36,0002.40
2022-08-03 05:17:00,,0827.1,4.98,0.00,29.5,27.2,00.0,38.2,31.3,33.4,0000.0,0003.40,0007.49,0002.43
2022-08-03 05:18:00,,0827.2,5.00,0.00,29.4,27.1,00.0,38.2,31.1,33.2,0000.0,0003.41,0007.49,0002.44
2022-08-03 05:19:00,,0827.1,5.00,0.00,29.3,27.1,00.0,38.2,31.0,33.8,0000.0,0003.38,0007.40,0002.44
2022-08-03 05:20:00,,0827.1,5.01,0.00,29.3,27.2,00.0,38.2,31.1,34.2,0000.0,0003.35,0007.23,0002.45
2022-08-03 05:21:00,,0827.1,4.99,0.00,29.3,27.4,00.0,38.1,31.1,34.1,0000.0,0003.31,0006.99,0002.45
2022-08-03 05:22:00,,0827.1,5.01,0.00,29.3,27.5,00.0,38.1,31.2,34.0,0000.0,0003.28,0006.77,0002.44
2022-08-03 05:23:00,,0827.0,4.99,0.00,29.3,27.7,00.0,38.1,31.2,34.1,0000.0,0003.24,0006.50,0002.46
2022-08-03 05:24:00,,0827.3,5.00,0.00,29.3,27.9,00.0,38.2,31.3,34.1,0000.0,0003.19,0006.19,0002.44
2022-08-03 05:25:00,,0827.1,4.99,0.00,29.3,28.0,00.0,38.2,31.3,34.1,0000.0,0003.16,0006.01,0002.43
2022-08-03 05:26:00,,0827.0,5.01,0.00,29.4,28.1,00.0,38.2,31.4,34.1,0000.0,0003.16,0005.43,0002.42
2022-08-03 05:27:00,,0827.0,4.99,0.00,29.4,28.2,00.0,38.2,31.4,34.1,0000.0,0003.14,0004.88,0002.42
2022-08-03 05:28:00,,0827.0,4.99,0.00,29.4,28.3,00.0,38.2,31.4,33.9,0000.0,0003.17,0005.78,0002.41
2022-08-03 05:29:00,,0827.0,5.00,0.00,29.5,28.4,00.0,38.2,31.5,33.5,0000.0,0003.22,0007.09,0002.40
2022-08-03 05:30:00,,0827.0,5.00,0.00,29.5,28.5,00.0,38.2,31.5,33.4,0000.0,0003.25,0007.23,0002.41
2022-08-03 05:31:00,,0827.3,5.00,0.00,29.5,28.6,00.0,38.3,31.6,33.3,0000.0,0003.25,0008.33,0002.40
2022-08-03 05:32:00,,0827.3,5.00,0.00,29.6,28.2,00.0,38.2,31.5,33.3,0000.0,0003.24,0008.50,0002.40
2022-08-03 05:33:00,,0827.0,4.99,0.00,29.5,27.7,00.0,38.2,31.4,33.3,0000.0,0003.28,0008.89,0002.40
2022-08-03 05:34:00,,0827.2,5.01,0.00,29.5,27.5,00.0,38.2,31.3,33.5,0000.0,0003.30,0008.95,0002.39
2022-08-03 05:35:00,,0827.3,4.99,0.00,29.4,27.6,00.0,38.2,31.2,33.6,0000.0,0003.31,0009.58,0002.39
2022-08-03 05:36:00,,0827.1,5.01,0.00,29.4,27.7,00.0,38.2,31.3,33.3,0000.0,0003.35,0009.83,0002.40
2022-08-03 05:37:00,,0827.1,5.00,0.00,29.4,27.8,00.0,38.2,31.3,33.5,0000.0,0003.34,0009.83,0002.40
2022-08-03 05:38:00,,0827.2,5.00,0.00,29.4,27.9,00.0,38.2,31.4,33.8,0000.0,0003.34,0009.92,0002.40
2022-08-03 05:39:00,,0827.2,5.00,0.00,29.4,28.1,00.0,38.2,31.4,33.7,0000.0,0003.32,0010.37,0002.41
2022-08-03 05:40:00,,0827.0,5.00,0.00,29.5,28.2,00.0,38.2,31.4,33.7,0000.0,0003.29,0009.80,0002.42
2022-08-03 05:41:00,,0827.1,5.00,0.00,29.5,28.3,00.0,38.3,31.5,33.6,0000.0,0003.31,0010.11,0002.42
2022-08-03 05:42:00,,0827.2,4.99,0.00,29.5,28.4,00.0,38.3,31.5,33.5,0000.0,0003.30,0009.30,0002.41
2022-08-03 05:43:00,,0827.1,5.00,0.00,29.6,28.5,00.0,38.3,31.6,33.5,0000.0,0003.34,0009.82,0002.42
2022-08-03 05:44:00,,0827.1,5.00,0.00,29.6,28.5,00.0,38.3,31.6,33.1,0000.0,0003.31,0009.49,0002.43
2022-08-03 05:45:00,,0827.1,4.99,0.00,29.6,28.0,00.0,38.3,31.4,33.2,0000.0,0003.34,0010.09,0002.45
2022-08-03 05:46:00,,0827.2,5.01,0.00,29.6,27.6,00.0,38.3,31.4,33.3,0000.0,0003.36,0010.26,0002.46
2022-08-03 05:47:00,,0827.2,4.99,0.00,29.5,27.5,00.0,38.3,31.3,33.4,0000.0,0003.39,0010.32,0002.46
2022-08-03 05:48:00,,0827.2,5.00,0.00,29.5,27.6,00.0,38.3,31.3,33.7,0000.0,0003.40,0010.36,0002.46
2022-08-03 05:49:00,,0827.2,5.00,0.00,29.4,27.7,00.0,38.3,31.3,33.8,0000.0,0003.40,0010.39,0002.46
2022-08-03 05:50:00,,0827.1,4.99,0.00,29.4,27.8,00.0,38.2,31.3,34.0,0000.0,0003.38,0009.46,0002.46
2022-08-03 05:51:00,,0827.1,4.99,0.00,29.5,28.0,00.0,38.3,31.4,34.0,0000.0,0003.37,0009.27,0002.45
2022-08-03 05:52:00,,0827.0,5.01,0.00,29.5,28.1,00.0,38.3,31.4,34.1,0000.0,0003.38,0009.09,0002.46
2022-08-03 05:53:00,,0827.3,5.00,0.00,29.5,28.2,00.0,38.3,31.5,34.1,0000.0,0003.42,0008.95,0002.47
2022-08-03 05:54:00,,0827.1,4.99,0.00,29.5,28.4,00.0,38.3,31.5,34.1,0000.0,0003.40,0008.43,0002.45
2022-08-03 05:55:00,,0827.2,5.01,0.00,29.6,28.5,00.0,38.3,31.6,34.1,0000.0,0003.42,0008.78,0002.46
2022-08-03 05:56:00,,0826.9,5.01,0.00,29.6,28.5,00.0,38.3,31.6,34.1,0000.0,0003.41,0009.08,0002.46
2022-08-03 05:57:00,,0827.2,4.99,0.00,29.6,28.2,00.0,38.3,31.5,34.0,0000.0,0003.38,0008.52,0002.44
2022-08-03 05:58:00,,0827.0,5.00,0.00,29.6,27.7,00.0,38.3,31.4,34.2,0000.0,0003.35,0008.60,0002.46
2022-08-03 05:59:00,,0826.9,5.01,0.00,29.5,27.5,00.0,38.3,31.4,33.8,0000.0,0003.37,0009.85,0002.47
